Flag for U.S.A. Weather past 2 weeks in Charlotte, North Carolina, U.S.A.

63 °F

Passing clouds.

Feels Like: 63 °F
Forecast: 50 / 71 °F
Wind: No wind

Location: Charlotte / Douglas International Airport

Current Time: Nov 29, 2015 at 6:33:42 PM

Latest Report: Nov 29, 2015 at 5:52 PM

Visibility: 10 mi

Pressure: 30.09 "Hg

Humidity: 75%

Dew point: 55 °F

Location of CharlotteLocation

Historic Weather in Charlotte — Graph


Charlotte temperature yesterday

Maximum temperature yesterday: 68 °F (at 1:52 PM)
Minimum temperature yesterday: 43 °F (at 4:52 AM)
Average temperature yesterday: 58 °F

Past Weeks' High & Low Weather Summary

High73 °F (Nov 18, 1:52 PM)97% (Nov 19, 2:52 AM)30.74 "Hg (Nov 19, 2:52 AM)
Low27 °F (Nov 15, 6:52 AM)17% (Nov 15, 11:52 AM)29.91 "Hg (Nov 22, 4:52 AM)
Average52 °F60%30.29 "Hg
* Reported Nov 14 4:52 PM — Nov 29 4:52 PM, Charlotte, Weather by CustomWeather, © 2015

Note: Actual official high and low records may vary slightly from our data, if they occured in-between our weather recording intervals... More about our weather records


Charlotte weather history for previous 24 hours

Time TempWeatherWind HumidityBarometerVisibility
4:52 PM
Sun, Nov 29
66 °FMore clouds than sun.No wind70%30.08 "Hg10 mi
3:52 PM67 °FLight rain. Mostly cloudy.No wind71%30.10 "Hg10 mi
2:52 PM70 °FLight rain. Mostly cloudy.No wind53%30.09 "Hg10 mi
1:52 PM71 °FPartly sunny.No wind51%30.11 "Hg10 mi
12:52 PM70 °FMostly cloudy.No wind55%30.13 "Hg10 mi
11:52 AM68 °FPartly sunny.No wind61%30.14 "Hg10 mi
10:52 AM67 °FOvercast.No wind63%30.17 "Hg10 mi
9:52 AM64 °FPartly sunny.No wind70%30.18 "Hg10 mi
8:52 AM60 °FPartly sunny.No wind83%30.18 "Hg10 mi
7:52 AM53 °FPartly sunny.No wind93%30.18 "Hg7 mi
6:52 AM53 °FPartly cloudy.3 mph93%30.16 "Hg10 mi
5:52 AM57 °FPassing clouds.No wind87%30.15 "Hg10 mi
4:52 AM55 °FOvercast.5 mph90%30.15 "Hg10 mi
3:52 AM57 °FOvercast.No wind83%30.16 "Hg10 mi
2:52 AM57 °FMostly cloudy.No wind83%30.17 "Hg10 mi
12:52 AM59 °FOvercast.No wind81%30.18 "Hg10 mi
11:52 PM
Sat, Nov 28
59 °FMostly cloudy.No wind78%30.19 "Hg10 mi
10:52 PM59 °FOvercast.5 mph78%30.19 "Hg10 mi
9:52 PM61 °FMostly cloudy.No wind72%30.20 "Hg10 mi
8:52 PM60 °FMostly cloudy.No wind75%30.20 "Hg10 mi
7:52 PM59 °FPassing clouds.No wind78%30.21 "Hg10 mi
6:52 PM62 °FPartly cloudy.No wind70%30.20 "Hg10 mi
Weather by CustomWeather, © 2015

See weather overviewHow to use our weather pages